This is the latest recevied weather packets stored in our database for station/object KM19. If no packets are shown the sender has not sent any weather packets the latest 1 day(s).
| Time | Temp. | Humidity | Pressure | Rain* | Wind** | Luminosity | Snow |
|---|---|---|---|---|---|---|---|
| 1778095413 | 11.67° C | 76% | 1016.6 hPa | - | - | - | - |
| 1778093616 | 12.78° C | 62% | 1016.9 hPa | - | - | - | - |
| 1778088217 | 12.78° C | 66% | 1016.3 hPa | - | - | - | - |
| 1778081017 | 10.56° C | 76% | 1015.9 hPa | - | - | - | - |
| 1778079817 | 10.56° C | 76% | 1015.9 hPa | - | - | - | - |
| 1778078616 | 10° C | 81% | 1015.6 hPa | - | - | - | - |
| 1778076813 | 10° C | 81% | 1015.6 hPa | - | - | - | - |
| 1778075614 | 8.89° C | 87% | 1014.9 hPa | - | - | - | - |
| 1778073215 | 8.89° C | 87% | 1014.9 hPa | - | - | - | - |
| 1778072616 | 8.89° C | 87% | 1014.9 hPa | - | - | - | - |
| 1778071415 | 8.89° C | 87% | 1013.9 hPa | - | - | - | - |
| 1778070215 | 8.89° C | 87% | 1013.9 hPa | - | - | - | - |
| 1778069614 | 8.89° C | 87% | 1013.9 hPa | - | - | - | - |
| 1778067212 | 8.89° C | 87% | 1012.2 hPa | - | - | - | - |
| 1778066016 | 8.89° C | 87% | 1012.2 hPa | - | - | - | - |
| 1778064216 | 8.89° C | 93% | 1012.5 hPa | - | - | - | - |
| 1778063016 | 8.89° C | 93% | 1012.5 hPa | - | - | - | - |
| 1778061217 | 8.89° C | 93% | 1012.9 hPa | - | - | - | - |
| 1778060739 | 10° C | 87% | 1012.5 hPa | - | - | - | - |
| 1778060015 | 10° C | 87% | 1012.5 hPa | - | - | - | - |
| 1778059414 | 10° C | 87% | 1012.5 hPa | - | - | - | - |
| 1778058217 | 10° C | 87% | 1012.2 hPa | - | - | - | - |
| 1778057019 | 10° C | 93% | 1010.8 hPa | - | - | - | - |
| 1778055813 | 10° C | 93% | 1010.8 hPa | - | - | - | - |
| 1778055212 | 10° C | 93% | 1010.8 hPa | - | - | - | - |
* Rain since midnight (hover to see other rain measurements)
** Current wind speed in m/s (hover to see current wind gust speed)